1505563201.03,47253,14.44,73602.8,8.57,-8.75,-9.79,0,*7D
1505563202.26,47254,14.44,73594.0,8.53,-9.45,-10.01,0,*4B
1505563203.48,47255,14.44,73600.8,8.49,-9.71,-9.41,0,*7A
1505563204.71,47256,14.44,73614.5,8.49,-9.57,-8.81,0,*70
1505563205.9,47257,14.44,73612.3,8.45,-9.79,-8.97,0,*76
1505563207.15,47258,14.44,73608.5,8.45,-9.41,-7.73,0,*77
1505563208.36,47259,14.44,73598.8,8.41,-8.67,-6.39,0,*78
1505563209.55,47260,14.44,73602.8,8.39,-9.05,-6.69,0,*7D
1505563210.79,47261,14.44,73610.0,8.35,-9.15,-6.27,0,*7B
1505563212.03,47262,14.44,73614.0,8.33,-9.71,-5.73,0,*7E
1505563213.24,47263,14.44,73610.8,8.35,-9.67,-4.73,0,*7F
1505563214.45,47264,14.44,73606.0,8.33,-8.97,-3.23,0,*72
1505563215.69,47265,14.44,73602.3,8.35,-7.73,-1.91,0,*7B
1505563216.89,47266,14.44,73600.8,8.35,-4.57,-0.93,0,*4E
1505563218.1,47267,14.44,73602.0,8.39,-4.85,-1.79,0,*79
1505563219.34,47268,14.44,73622.0,8.39,-3.63,-1.43,0,*70
1505563220.55,47269,14.44,73628.3,8.41,-4.05,-3.31,0,*7E
1505563221.76,47270,14.44,73650.0,8.41,-4.09,-4.65,0,*7C
1505563223.0,47271,14.44,73648.5,8.41,-5.35,-5.77,0,*71
1505563224.21,47272,14.44,73656.5,8.41,-8.41,-8.63,0,*74
1505563225.46,47273,14.44,73650.5,8.41,-12.35,-10.31,0,*73
1505563226.7,47274,14.44,73654.5,8.35,-15.21,-9.83,0,*44
1505563227.92,47275,14.44,73652.3,8.33,-16.79,-9.19,0,*4E
1505563229.14,47276,14.44,73648.0,8.29,-15.29,-6.55,0,*47
1505563230.33,47277,14.44,73642.8,8.27,-13.55,-4.65,0,*44
1505563231.55,47278,14.44,73644.0,8.25,-11.15,-3.03,0,*48
1505563232.77,47279,14.44,73636.8,8.25,-8.41,-1.67,0,*70
1505563234.0,47280,14.44,73640.3,8.21,-5.55,-0.27,0,*4F
1505563235.18,47281,14.44,73640.8,8.23,-4.37,-0.45,0,*4D
1505563236.4,47282,14.44,73642.3,8.21,-2.23,0.41,0,*66
1505563237.63,47283,14.44,73638.3,8.21,-0.15,1.37,0,*60
1505563238.88,47284,14.44,73638.3,8.21,1.13,1.97,0,*77
1505563240.12,47285,14.44,73638.5,8.21,2.21,2.69,0,*76
1505563241.35,47286,14.44,73638.3,8.23,2.69,2.81,0,*7D
1505563242.6,47287,14.44,73636.5,8.21,2.81,2.81,0,*78
1505563243.82,47288,14.44,73636.3,8.23,2.77,2.55,0,*75
1505563245.04,47289,14.44,73634.0,8.23,2.05,1.59,0,*7E
1505563246.25,47290,14.44,73634.5,8.23,2.09,1.59,0,*7A
1505563247.45,47291,14.44,73628.5,8.23,2.65,2.05,0,*7B
1505563248.65,47292,14.44,73630.8,8.23,2.91,2.21,0,*75
1505563249.87,47293,14.44,73624.3,8.23,2.17,1.43,0,*7D
1505563251.09,47294,14.44,73608.5,8.23,2.89,2.05,0,*7C
1505563252.26,47295,14.44,73602.3,8.23,2.91,2.27,0,*74
1505563253.49,47296,14.44,73602.5,8.25,2.35,1.85,0,*74
1505563254.71,47297,14.44,73598.8,8.23,1.63,1.13,0,*7C
1505563255.93,47298,14.44,73594.5,8.21,1.75,1.33,0,*74
1505563257.11,47299,14.44,73582.3,8.23,2.65,2.35,0,*70
1505563258.34,47300,14.44,73586.8,8.21,3.15,2.91,0,*7B
1505563259.56,47301,14.44,73598.0,8.23,3.37,3.19,0,*79
1505563260.78,47302,14.44,73598.5,8.23,3.19,3.03,0,*7D
1505563262.0,47303,14.44,73596.5,8.23,1.97,1.47,0,*7A
1505563263.24,47304,14.44,73612.5,8.21,0.87,0.59,0,*71
1505563264.49,47305,14.44,73634.5,8.17,1.93,1.67,0,*7D
1505563265.74,47306,14.44,73634.3,8.17,1.33,0.95,0,*48
1505563266.93,47307,14.44,73638.0,8.15,0.97,0.63,0,*7D
1505563268.19,47308,14.44,73644.3,8.07,1.37,1.21,0,*7D
1505563269.42,47309,14.44,73644.0,8.07,2.65,2.43,0,*7F
1505563270.63,47310,14.44,73640.0,8.09,2.95,3.03,0,*73
1505563271.8,47311,14.44,73634.0,8.09,3.63,3.63,0,*7C
1505563273.01,47312,14.44,73624.8,8.09,2.91,2.81,0,*7E
1505563274.23,47313,14.44,73636.0,8.09,2.21,2.09,0,*74
1505563275.43,47314,14.44,73644.0,8.09,3.59,3.53,0,*73
1505563276.66,47315,14.44,73644.3,8.11,4.23,4.31,0,*72
1505563277.84,47316,14.44,73636.0,8.15,5.07,5.07,0,*76
1505563279.01,47317,14.44,73636.3,8.15,5.41,5.45,0,*73
1505563280.21,47318,14.44,73636.3,8.19,5.27,5.23,0,*70
1505563281.43,47319,14.44,73634.8,8.23,5.81,5.85,0,*78
1505563282.67,47320,14.44,73638.0,8.25,6.33,6.35,0,*76
1505563283.84,47321,14.44,73638.3,8.31,6.75,6.75,0,*74
1505563285.07,47322,14.44,73642.8,8.35,6.65,6.47,0,*73
1505563286.3,47323,14.44,73642.8,8.45,6.91,6.69,0,*72
1505563287.49,47324,14.44,73642.8,8.49,6.83,6.57,0,*77
1505563288.73,47325,14.44,73642.0,8.53,6.61,6.39,0,*79
1505563289.92,47326,14.44,73650.3,8.59,7.51,7.01,0,*78
1505563291.13,47327,14.44,73650.8,8.65,7.65,7.09,0,*79
1505563292.32,47328,14.44,73658.0,8.73,7.33,6.39,0,*70
1505563293.56,47329,14.44,73656.3,8.77,6.29,4.93,0,*7D
1505563294.77,47330,14.44,73656.0,8.79,5.15,3.45,0,*7B
1505563296.02,47331,14.44,73658.3,8.85,4.79,2.73,0,*76
1505563297.24,47332,14.44,73662.3,8.87,4.31,1.97,0,*72
1505563298.42,47333,14.44,73662.3,8.91,2.91,0.43,0,*40
1505563299.64,47334,14.44,73664.5,8.95,2.43,0.33,0,*4B
1505563300.83,47335,14.44,73666.0,8.95,2.85,1.05,0,*74
1505563302.05,47336,14.44,73670.0,8.95,3.15,1.71,0,*7C
1505563303.25,47337,14.44,73670.8,8.99,3.59,2.55,0,*7C
1505563304.45,47338,14.44,73664.8,9.03,3.93,3.33,0,*76
1505563305.64,47339,14.44,73662.8,9.03,3.33,2.91,0,*74
1505563306.88,47340,14.44,73664.8,9.11,3.23,2.99,0,*70
1505563308.11,47341,14.44,73664.8,9.09,3.11,3.03,0,*7B
1505563309.35,47342,14.44,73666.8,9.13,3.41,3.41,0,*70
1505563310.6,47343,14.44,73664.8,9.15,4.01,3.79,0,*7F
1505563311.83,47344,14.44,73666.5,9.17,4.63,4.31,0,*75
1505563313.04,47345,14.44,73662.0,9.21,4.33,3.67,0,*70
1505563314.27,47346,14.44,73666.3,9.25,3.71,2.77,0,*76
1505563315.52,47347,14.44,73668.0,9.31,4.31,3.03,0,*73
1505563316.75,47348,14.44,73668.8,9.35,2.65,1.09,0,*77
1505563317.99,47349,14.44,73670.0,9.39,0.95,-0.93,0,*58
1505563319.23,47350,14.44,73666.5,9.45,-1.43,-3.11,0,*75
1505563320.43,47351,14.44,73664.0,9.47,-2.59,-3.83,0,*75
1505563321.67,47352,14.44,73660.5,9.49,-3.55,-4.49,0,*74
1505563322.91,47353,14.44,73652.3,9.53,-5.61,-6.51,0,*74
1505563324.12,47354,14.44,73654.8,9.53,-6.13,-6.39,0,*7B
1505563325.38,47355,14.44,73648.8,9.57,-7.35,-7.39,0,*7A
1505563326.61,47356,14.44,73652.0,9.57,-10.35,-9.71,0,*4D
1505563327.86,47357,14.44,73650.8,9.57,-12.07,-10.23,0,*70
1505563329.11,47358,14.44,73650.0,9.57,-12.79,-10.27,0,*72
1505563330.32,47359,14.44,73646.0,9.55,-14.29,-10.97,0,*79
1505563331.56,47360,14.44,73642.3,9.57,-16.93,-12.61,0,*79
1505563332.81,47361,14.44,73636.8,9.53,-19.13,-13.79,0,*73
1505563334.04,47362,14.44,73638.5,9.45,-19.03,-12.29,0,*72
1505563335.29,47363,14.44,73638.0,9.45,-17.97,-10.23,0,*78
1505563336.5,47364,14.44,73638.0,9.39,-17.69,-9.19,0,*44
1505563337.7,47365,14.44,73634.8,9.33,-15.49,-6.35,0,*4E
1505563338.96,47366,14.44,73632.0,9.31,-13.87,-4.77,0,*4F
1505563340.19,47367,14.44,73632.8,9.25,-10.57,-2.07,0,*44
1505563341.41,47368,14.44,73624.0,9.23,-7.23,-0.41,0,*48
1505563342.65,47369,14.44,73612.8,9.19,-4.69,0.21,0,*66
1505563343.83,47370,14.44,73606.0,9.17,-1.25,1.41,0,*5A
1505563345.06,47371,14.44,73598.0,9.15,1.01,2.25,0,*73
1505563346.27,47372,14.44,73594.0,9.13,1.79,2.25,0,*79
1505563347.49,47373,14.44,73596.8,9.13,3.33,3.75,0,*70
1505563348.7,47374,14.44,73600.3,9.11,3.93,4.23,0,*7B
1505563349.88,47375,14.44,73602.3,9.13,3.89,4.11,0,*72
1505563351.07,47376,14.44,73600.0,9.13,4.23,4.37,0,*72
1505563352.25,47377,14.44,73606.3,9.17,3.81,3.93,0,*71
1505563353.5,47378,14.44,73608.8,9.15,3.67,3.79,0,*70
1505563354.76,47379,14.44,73612.3,9.15,3.37,3.45,0,*7B
1505563355.96,47380,14.44,73614.0,9.17,4.05,4.15,0,*7B
1505563357.17,47381,14.44,73620.3,9.17,4.81,4.97,0,*7C
1505563358.38,47382,14.44,73618.5,9.17,4.53,4.59,0,*72
1505563359.56,47383,14.44,73622.3,9.17,4.07,4.19,0,*76
1505563360.76,47384,14.44,73626.5,9.19,4.45,4.57,0,*73
1505563361.99,47385,14.44,73620.5,9.19,3.93,3.97,0,*75
1505563363.17,47386,14.44,73618.0,9.21,4.33,4.45,0,*78
1505563364.38,47387,14.44,73622.3,9.19,3.81,3.81,0,*73
1505563365.58,47388,14.44,73622.8,9.19,4.23,4.11,0,*7D
1505563366.78,47389,14.44,73626.3,9.21,4.23,4.01,0,*76
1505563367.99,47390,14.44,73630.8,9.21,4.59,4.33,0,*72
1505563369.24,47391,14.44,73630.8,9.23,4.01,3.79,0,*75
1505563370.46,47392,14.44,73634.5,9.23,4.23,3.97,0,*76
1505563371.67,47393,14.44,73636.5,9.23,4.27,3.89,0,*7C
1505563372.9,47394,14.44,73640.3,9.23,4.33,3.97,0,*71
1505563374.13,47395,14.44,73646.5,9.23,4.11,3.75,0,*7C
1505563375.3,47396,14.5,73648.3,9.25,4.49,4.11,0,*71
1505563376.47,47397,14.44,73648.8,9.25,4.53,4.19,0,*73
1505563377.7,47398,14.44,73654.3,9.31,4.67,4.53,0,*70
1505563378.93,47399,14.44,73654.0,9.31,4.41,4.31,0,*71
1505563380.15,47400,14.44,73652.8,9.31,4.75,4.89,0,*72
1505563381.37,47401,14.5,73662.8,9.35,4.67,4.81,0,*7C
1505563382.58,47402,14.44,73656.3,9.35,4.07,4.33,0,*70
1505563383.83,47403,14.44,73658.8,9.35,4.59,5.05,0,*7E
1505563385.04,47404,14.44,73658.8,9.37,4.71,5.33,0,*74
1505563386.23,47405,14.44,73658.8,9.39,4.81,5.41,0,*71
1505563387.46,47406,14.44,73660.3,9.39,4.63,5.33,0,*7B
1505563388.71,47407,14.5,73660.5,9.41,4.67,5.27,0,*74
1505563389.92,47408,14.44,73654.3,9.45,5.37,5.99,0,*7E
1505563391.12,47409,14.44,73644.0,9.47,6.13,6.93,0,*71
1505563392.32,47410,14.44,73646.8,9.47,6.47,7.41,0,*76
1505563393.55,47411,14.5,73676.3,9.53,5.95,7.15,0,*7F
1505563394.74,47412,14.44,73692.5,9.63,4.41,5.93,0,*7B
1505563395.98,47413,14.44,73664.5,9.65,-1.21,1.09,0,*55
1505563397.2,47414,14.44,73632.0,9.63,-5.47,-1.99,0,*74
1505563398.45,47415,14.44,73626.3,9.61,-6.35,-1.39,0,*7B
1505563399.66,47416,14.44,73618.5,9.61,-6.77,-2.27,0,*72
1505563400.91,47417,14.5,73614.0,9.65,-7.01,-3.27,0,*76
1505563402.11,47418,14.44,73628.8,9.67,-10.09,-7.05,0,*41
1505563403.35,47419,14.5,73630.8,9.65,-11.33,-8.59,0,*4C
1505563404.57,47420,14.44,73638.3,9.67,-11.29,-9.23,0,*43
1505563405.82,47421,14.44,73640.8,9.69,-13.87,-12.03,0,*72
1505563407.02,47422,14.44,73648.8,9.67,-13.55,-11.45,0,*71
1505563408.28,47423,14.5,73660.8,9.67,-11.85,-10.63,0,*7A
1505563409.51,47424,14.44,73660.0,9.65,-9.83,-9.27,0,*78
1505563410.77,47425,14.44,73658.0,9.65,-9.53,-9.41,0,*74
1505563411.99,47426,14.44,73654.8,9.67,-10.93,-9.41,0,*41
1505563413.22,47427,14.44,73654.5,9.67,-11.33,-10.49,0,*7B
1505563414.4,47428,14.44,73662.3,9.67,-10.09,-8.67,0,*49
1505563415.58,47429,14.44,73666.8,9.67,-8.67,-6.85,0,*7B
1505563416.8,47430,14.5,73664.8,9.69,-7.87,-6.55,0,*71
1505563418.02,47431,14.44,73660.8,9.73,-8.37,-5.47,0,*7F
1505563419.25,47432,14.44,73658.5,9.77,-7.31,-3.91,0,*7C
1505563420.49,47433,14.44,73662.3,9.81,-8.29,-5.15,0,*78
1505563421.74,47434,14.44,73660.0,9.81,-8.17,-5.03,0,*75
1505563422.98,47435,14.44,73662.8,9.81,-8.45,-5.23,0,*71
1505563424.21,47436,14.44,73660.8,9.83,-7.23,-5.23,0,*7F
1505563425.42,47437,14.44,73660.3,9.83,-8.25,-6.63,0,*70
1505563426.64,47438,14.44,73656.5,9.87,-7.83,-6.27,0,*78
1505563427.88,47439,14.44,73658.3,9.89,-6.69,-6.19,0,*7F
1505563429.09,47440,14.44,73654.0,9.89,-6.47,-5.43,0,*71
1505563430.36,47441,14.44,73646.8,9.89,-5.11,-5.93,0,*7D
1505563431.55,47442,14.5,73652.0,9.87,-4.05,-3.91,0,*70
1505563432.75,47443,14.5,73656.3,9.85,-2.15,-1.25,0,*79
1505563433.96,47444,14.44,73664.0,9.87,-0.73,0.59,0,*59
1505563435.19,47445,14.44,73664.3,9.89,-0.53,1.29,0,*62
1505563436.4,47446,14.44,73666.0,9.91,-1.33,0.87,0,*6A
1505563437.61,47447,14.5,73664.0,9.93,-2.95,-0.57,0,*46
1505563438.81,47448,14.5,73654.8,9.95,-3.15,-0.73,0,*40
1505563440.04,47449,14.5,73644.3,10.01,-4.65,-1.95,0,*4D
1505563441.28,47450,14.44,73648.8,10.01,-5.23,-4.29,0,*44
1505563442.51,47451,14.44,73652.8,9.99,-5.03,-4.57,0,*77
1505563443.7,47452,14.44,73654.5,9.99,-7.15,-6.35,0,*77
1505563444.94,47453,14.5,73644.5,10.01,-10.63,-8.55,0,*70
1505563446.15,47454,14.5,73648.3,9.99,-9.27,-7.69,0,*76
1505563447.39,47455,14.44,73654.5,9.99,-7.31,-7.27,0,*74
1505563448.6,47456,14.44,73658.3,9.95,-7.39,-6.85,0,*7A
1505563449.85,47457,14.5,73660.0,9.95,-8.11,-8.07,0,*7A
1505563451.07,47458,14.5,73666.5,9.91,-7.73,-7.49,0,*7F
1505563452.28,47459,14.44,73664.8,9.89,-3.07,-2.91,0,*70
1505563453.49,47460,14.5,73672.5,9.89,-2.91,-2.91,0,*74
1505563454.71,47461,14.44,73666.8,9.89,-3.07,-2.19,0,*7B
1505563455.88,47462,14.5,73664.8,9.91,-4.49,-3.23,0,*74
1505563457.12,47463,14.44,73664.8,9.93,-5.23,-3.79,0,*75
1505563458.35,47464,14.5,73664.3,9.95,-6.77,-5.27,0,*7B
1505563459.59,47465,14.44,73662.8,9.93,-8.11,-6.77,0,*74
1505563460.83,47466,14.44,73666.8,9.93,-7.69,-6.89,0,*76
1505563462.08,47467,14.5,73666.3,9.95,-7.01,-5.61,0,*7A
1505563463.32,47468,14.44,73666.5,9.93,-7.19,-5.77,0,*7D
1505563464.53,47469,14.5,73660.3,9.91,-8.17,-6.23,0,*7D
1505563465.74,47470,14.5,73662.5,9.91,-8.45,-6.93,0,*79
1505563466.97,47471,14.5,73664.5,9.89,-8.45,-7.11,0,*7A
1505563468.18,47472,14.5,73664.3,9.87,-6.27,-5.39,0,*75
1505563469.42,47473,14.44,73662.3,9.87,-5.81,-4.77,0,*70
1505563470.63,47474,14.5,73664.0,9.85,-6.55,-6.55,0,*7D
1505563471.87,47475,14.5,73668.0,9.87,-7.39,-7.65,0,*77
1505563473.14,47476,14.5,73666.0,9.81,-11.29,-11.59,0,*7C
1505563474.4,47477,14.44,73668.5,9.79,-11.89,-11.55,0,*7C
1505563475.62,47478,14.44,73664.8,9.73,-11.15,-11.23,0,*7D
1505563476.85,47479,14.44,73656.5,9.71,-11.85,-12.21,0,*76
1505563478.05,47480,14.44,73662.8,9.67,-10.49,-10.23,0,*76
1505563479.24,47481,14.44,73662.0,9.63,-8.63,-8.89,0,*7B
1505563480.44,47482,14.44,73662.0,9.63,-6.39,-6.23,0,*77
1505563481.68,47483,14.5,73660.5,9.61,-5.61,-3.91,0,*76
1505563482.89,47484,14.44,73660.3,9.61,-4.45,-2.23,0,*7E
1505563484.07,47485,14.44,73670.8,9.63,-3.87,-0.61,0,*40
1505563485.34,47486,14.5,73668.8,9.65,-6.23,-2.47,0,*78
1505563486.53,47487,14.44,73666.0,9.63,-8.37,-4.21,0,*72
1505563487.74,47488,14.5,73662.5,9.63,-7.43,-3.87,0,*7A
1505563488.96,47489,14.44,73660.8,9.59,-5.47,-2.71,0,*7C
1505563490.17,47490,14.5,73658.5,9.61,-3.03,-1.25,0,*7B
1505563491.39,47491,14.5,73656.3,9.61,-3.23,-1.79,0,*71
1505563492.61,47492,14.5,73658.8,9.59,-3.91,-1.91,0,*76
1505563493.79,47493,14.44,73662.5,9.59,-2.91,-0.19,0,*47
1505563495.03,47494,14.5,73674.5,9.61,-1.29,1.33,0,*5F
1505563496.26,47495,14.44,73670.3,9.59,-2.03,0.79,0,*61
1505563497.46,47496,14.5,73670.3,9.63,-2.23,0.47,0,*64
1505563498.7,47497,14.5,73670.5,9.67,-1.39,1.29,0,*50
1505563499.93,47498,14.5,73672.8,9.69,-1.21,0.83,0,*69
1505563501.17,47499,14.5,73680.5,9.69,0.21,2.13,0,*4F
1505563502.41,47500,14.5,73682.3,9.77,0.63,2.09,0,*4C
1505563503.61,47501,14.5,73686.3,9.79,-0.53,0.79,0,*58
1505563504.79,47502,14.5,73680.0,9.83,-1.63,-0.53,0,*49
1505563506.02,47503,14.5,73674.3,9.83,-3.75,-2.67,0,*78
1505563507.26,47504,14.44,73652.8,9.83,-3.55,-1.91,0,*77
1505563508.46,47505,14.44,73658.5,9.87,-3.15,-1.21,0,*7D
1505563509.67,47506,14.5,73668.3,9.87,-3.15,-1.35,0,*7B
1505563510.89,47507,14.5,73676.0,9.87,-4.17,-2.63,0,*7F
1505563512.08,47508,14.5,73676.3,9.91,-4.57,-3.23,0,*76
1505563513.3,47509,14.44,73676.8,9.89,-8.55,-6.81,0,*7D
1505563514.54,47510,14.44,73674.8,9.89,-9.61,-6.47,0,*79
1505563515.77,47511,14.5,73674.0,9.89,-9.83,-6.55,0,*77
1505563517.01,47512,14.5,73674.0,9.89,-9.97,-7.27,0,*75
1505563518.26,47513,14.5,73660.5,9.89,-9.15,-7.15,0,*7F
1505563519.48,47514,14.44,73680.5,9.89,-8.67,-7.15,0,*7C
1505563520.67,47515,14.5,73666.3,9.87,-7.15,-6.59,0,*70
1505563521.88,47516,14.5,73652.5,9.87,-12.25,-11.41,0,*7B
1505563523.13,47517,14.5,73664.0,9.85,-12.35,-11.01,0,*7D
1505563524.35,47518,14.5,73670.8,9.81,-10.57,-10.45,0,*71
1505563525.58,47519,14.5,73676.3,9.79,-11.85,-11.01,0,*78
1505563526.83,47520,14.5,73684.3,9.77,-11.11,-10.71,0,*77
1505563528.1,47521,14.5,73682.3,9.77,-12.35,-13.61,0,*71
1505563529.32,47522,14.5,73670.0,9.71,-16.59,-16.31,0,*7A
1505563530.53,47523,14.5,73670.5,9.71,-15.21,-14.19,0,*7F
1505563531.78,47524,14.5,73672.5,9.67,-13.87,-12.83,0,*70
1505563532.99,47525,14.44,73668.3,9.67,-14.37,-12.39,0,*7C
1505563534.22,47526,14.5,73672.5,9.63,-12.11,-10.19,0,*79
1505563535.4,47527,14.5,73674.8,9.63,-9.89,-7.83,0,*76
1505563536.62,47528,14.44,73672.8,9.63,-7.73,-6.81,0,*71
1505563537.82,47529,14.5,73676.3,9.63,-9.83,-8.29,0,*7D
1505563539.04,47530,14.5,73672.3,9.61,-7.49,-6.47,0,*79
1505563540.25,47531,14.5,73670.8,9.59,-4.99,-4.85,0,*71
1505563541.49,47532,14.5,73668.8,9.59,-5.73,-5.89,0,*7A
1505563542.67,47533,14.5,73666.0,9.59,-4.99,-4.09,0,*77
1505563543.89,47534,14.5,73672.0,9.57,-3.83,-2.35,0,*7B
1505563545.16,47535,14.5,73670.8,9.57,-3.63,-2.07,0,*75
1505563546.37,47536,14.5,73672.5,9.55,-4.09,-2.59,0,*74
1505563547.56,47537,14.5,73674.5,9.55,-3.87,-2.43,0,*7F
1505563548.79,47538,14.5,73678.0,9.57,-4.85,-3.11,0,*71
1505563550.0,47539,14.5,73676.5,9.55,-5.51,-4.01,0,*7C
1505563551.23,47540,14.5,73668.5,9.55,-7.95,-5.69,0,*77
1505563552.45,47541,14.5,73672.8,9.53,-9.01,-6.13,0,*7D
1505563553.69,47542,14.44,73672.3,9.49,-10.45,-7.35,0,*48
1505563554.94,47543,14.5,73670.0,9.49,-13.51,-9.41,0,*42
1505563556.16,47544,14.5,73670.3,9.45,-13.73,-9.31,0,*4E
1505563557.43,47545,14.5,73670.8,9.39,-14.97,-10.63,0,*76
1505563558.64,47546,14.5,73676.8,9.35,-13.19,-8.71,0,*42
1505563559.85,47547,14.44,73680.0,9.33,-9.53,-4.99,0,*7A
1505563561.04,47548,14.5,73682.8,9.33,-8.41,-4.33,0,*77
1505563562.29,47549,14.5,73682.3,9.27,-8.03,-3.43,0,*75
1505563563.51,47550,14.5,73688.0,9.25,-6.81,-2.55,0,*7D
1505563564.72,47551,14.5,73686.0,9.23,-7.49,-3.31,0,*7C
1505563565.99,47552,14.5,73676.0,9.23,-7.61,-2.71,0,*70
1505563567.25,47553,14.44,73670.0,9.19,-6.63,-1.35,0,*78
1505563568.48,47554,14.5,73674.3,9.19,-5.43,-0.27,0,*4C
1505563569.67,47555,14.44,73678.8,9.15,-4.45,0.09,0,*57
1505563570.9,47556,14.5,73684.0,9.15,-4.09,0.55,0,*65
1505563572.13,47557,14.5,73690.3,9.15,-4.17,1.09,0,*53
1505563573.36,47558,14.5,73676.3,9.15,-4.41,1.43,0,*51
1505563574.59,47559,14.5,73670.0,9.15,-7.23,0.83,0,*6A
1505563575.8,47560,14.5,73688.3,9.13,-6.59,1.29,0,*5B
1505563577.03,47561,14.5,73662.8,9.13,-7.91,0.51,0,*61
1505563578.25,47562,14.44,73658.0,9.11,-11.11,-2.23,0,*45
1505563579.47,47563,14.5,73664.3,9.03,-11.55,-2.31,0,*44
1505563580.69,47564,14.5,73668.5,8.99,-10.49,-1.47,0,*4F
1505563581.93,47565,14.5,73672.5,8.93,-9.37,-0.77,0,*47
1505563583.18,47566,14.44,73672.0,8.93,-7.61,0.75,0,*66
1505563584.42,47567,14.5,73674.0,8.89,-8.07,-0.15,0,*48
1505563585.62,47568,14.5,73674.3,8.89,-6.77,0.01,0,*56
1505563586.85,47569,14.5,73672.5,8.85,-4.53,0.75,0,*6C
1505563588.08,47570,14.5,73674.3,8.81,-3.03,0.83,0,*6B
1505563589.27,47571,14.5,73668.3,8.79,-1.17,1.79,0,*5E
1505563590.48,47572,14.5,73668.3,8.79,-0.53,1.85,0,*6F
1505563591.7,47573,14.5,73664.0,8.77,0.51,2.35,0,*47
1505563592.97,47574,14.5,73662.0,8.77,1.13,2.59,0,*7D
1505563594.23,47575,14.5,73660.8,8.77,1.85,3.03,0,*7D
1505563595.5,47576,14.5,73656.5,8.77,2.43,3.41,0,*71
1505563596.73,47577,14.5,73654.8,8.77,2.65,3.53,0,*77
1505563597.97,47578,14.5,73658.5,8.77,3.03,3.89,0,*7E
1505563599.18,47579,14.5,73652.3,8.79,3.23,3.81,0,*7B
1505563600.43,47580,14.5,73658.0,8.81,3.45,4.01,0,*75
1505563601.63,47581,14.5,73654.8,8.79,3.33,3.55,0,*74
1505563602.84,47582,14.5,73656.8,8.79,2.91,3.33,0,*7E
1505563604.04,47583,14.5,73658.0,8.79,2.59,2.91,0,*72
1505563605.27,47584,14.5,73660.8,8.79,2.25,2.69,0,*79
1505563606.53,47585,14.5,73666.3,8.77,1.47,2.43,0,*79
1505563607.76,47586,14.5,73672.0,8.75,0.59,1.71,0,*44
1505563608.98,47587,14.5,73666.8,8.73,0.13,1.33,0,*4B
1505563610.21,47588,14.5,73666.0,8.71,0.33,1.51,0,*40
1505563611.45,47589,14.5,73662.5,8.69,1.21,2.47,0,*7E
1505563612.68,47590,14.5,73654.5,8.69,1.47,2.55,0,*75
1505563613.93,47591,14.5,73652.5,8.71,1.85,2.69,0,*7C
1505563615.18,47592,14.5,73648.5,8.67,1.51,2.01,0,*7F
1505563616.4,47593,14.5,73646.8,8.67,0.55,0.97,0,*76
1505563617.64,47594,14.5,73648.3,8.63,0.33,0.87,0,*74
1505563618.85,47595,14.5,73660.5,8.57,1.25,1.83,0,*71
1505563620.07,47596,14.5,73656.0,8.57,0.29,0.91,0,*7D
1505563621.3,47597,14.5,73654.5,8.53,-0.23,0.47,0,*54
1505563622.49,47598,14.5,73654.5,8.49,0.05,0.71,0,*4C
1505563623.71,47599,14.5,73652.8,8.47,-0.19,0.33,0,*55
1505563624.93,47600,14.5,73656.8,8.45,0.33,0.67,0,*70
1505563626.12,47601,14.5,73660.5,8.39,1.63,1.79,0,*70
1505563627.35,47602,14.5,73662.3,8.39,3.07,3.33,0,*7F
1505563628.61,47603,14.5,73660.8,8.41,3.37,3.45,0,*73
1505563629.83,47604,14.5,73662.8,8.41,3.49,3.55,0,*7C
1505563631.04,47605,14.5,73660.8,8.45,3.89,4.01,0,*73
1505563632.22,47606,14.5,73666.8,8.45,4.11,4.27,0,*72
1505563633.45,47607,14.5,73666.5,8.45,3.15,3.19,0,*7A
1505563634.68,47608,14.5,73668.8,8.47,2.81,2.91,0,*7A
1505563635.92,47609,14.44,73670.3,8.47,3.29,3.45,0,*70
1505563637.13,47610,14.5,73676.3,8.45,3.79,3.89,0,*7F
1505563638.34,47611,14.5,73678.3,8.45,4.01,4.23,0,*71
1505563639.54,47612,14.5,73678.0,8.47,4.27,4.49,0,*78
1505563640.77,47613,14.5,73678.3,8.51,4.31,4.45,0,*75
1505563641.99,47614,14.5,73674.3,8.51,2.21,2.31,0,*70
1505563643.2,47615,14.5,73666.3,8.49,0.33,0.37,0,*7D
1505563644.39,47616,14.5,73644.8,8.45,-0.61,-0.41,0,*74
1505563645.63,47617,14.5,73662.0,8.41,0.47,0.83,0,*7B
1505563646.87,47618,14.5,73654.3,8.33,0.59,0.83,0,*7E
1505563648.11,47619,14.5,73650.5,8.33,0.75,1.09,0,*42
1505563649.34,47620,14.5,73658.0,8.29,1.55,1.83,0,*72
1505563650.57,47621,14.5,73668.0,8.29,1.93,2.35,0,*77
1505563651.83,47622,14.5,73668.3,8.29,1.33,2.05,0,*7D
1505563653.04,47623,14.5,73662.0,8.27,0.83,1.71,0,*48
1505563654.27,47624,14.5,73654.5,8.25,0.29,0.95,0,*76
1505563655.45,47625,14.5,73646.3,8.23,0.01,0.87,0,*48
1505563656.68,47626,14.5,73640.3,8.21,0.17,0.79,0,*7F
1505563657.91,47627,14.5,73662.8,8.21,1.75,2.59,0,*7B
1505563659.11,47628,14.5,73670.8,8.17,2.95,3.59,0,*7D
1505563660.34,47629,14.5,73668.5,8.19,2.73,3.33,0,*76
1505563661.59,47630,14.5,73658.3,8.21,2.05,2.77,0,*75
1505563662.81,47631,14.5,73654.0,8.21,2.43,2.91,0,*7E
1505563664.04,47632,14.5,73656.8,8.23,2.77,3.15,0,*75
1505563665.26,47633,14.5,73656.0,8.21,2.81,3.25,0,*7C
1505563666.52,47634,14.5,73660.0,8.21,3.07,3.49,0,*7E
1505563667.72,47635,14.5,73668.0,8.21,3.59,4.07,0,*79
1505563668.92,47636,14.44,73666.5,8.23,4.01,4.45,0,*74
1505563670.11,47637,14.5,73666.8,8.25,4.33,4.81,0,*7A
1505563671.29,47638,14.5,73670.5,8.27,4.41,4.89,0,*7A
1505563672.49,47639,14.5,73674.0,8.31,4.33,4.93,0,*72
1505563673.72,47640,14.5,73684.5,8.35,4.93,5.55,0,*79
1505563674.89,47641,14.5,73668.3,8.35,4.57,5.29,0,*7B
1505563676.08,47642,14.5,73662.0,8.41,3.55,4.27,0,*71
1505563677.31,47643,14.5,73664.0,8.41,2.27,3.11,0,*76
1505563678.52,47644,14.5,73668.5,8.47,2.61,3.29,0,*7E
1505563679.7,47645,14.5,73668.5,8.45,3.63,4.23,0,*73
1505563680.93,47646,14.5,73676.5,8.47,3.15,3.85,0,*78
1505563682.16,47647,14.5,73684.3,8.47,3.55,4.01,0,*76
1505563683.37,47648,14.5,73676.0,8.49,3.79,4.41,0,*7D
1505563684.55,47649,14.5,73668.3,8.53,3.85,4.33,0,*71
1505563685.76,47650,14.5,73666.5,8.55,4.11,4.57,0,*77
1505563687.02,47651,14.5,73668.3,8.55,4.59,4.93,0,*72
1505563688.23,47652,14.5,73668.0,8.59,4.85,5.11,0,*77
1505563689.49,47653,14.5,73668.5,8.63,4.67,4.67,0,*73
1505563690.69,47654,14.5,73682.0,8.65,4.97,4.89,0,*7D
1505563691.87,47655,14.5,73678.5,8.69,5.49,5.29,0,*79
1505563693.05,47656,14.5,73672.0,8.73,5.45,5.07,0,*71
1505563694.25,47657,14.5,73670.3,8.77,5.11,4.19,0,*7B
1505563695.51,47658,14.5,73674.0,8.81,3.67,2.39,0,*7E
1505563696.72,47659,14.5,73676.3,8.87,2.89,1.93,0,*7B
1505563697.97,47660,14.5,73662.5,8.89,1.47,0.71,0,*43
1505563699.2,47661,14.5,73666.8,8.93,0.67,0.41,0,*79
1505563700.43,47662,14.5,73664.3,8.93,-0.19,-1.05,0,*42
1505563701.61,47663,14.5,73672.5,8.95,-0.53,-1.59,0,*42
1505563702.78,47664,14.5,73680.5,8.99,-0.77,-1.25,0,*44
1505563703.99,47665,14.5,73674.3,8.99,-3.95,-3.47,0,*7C
1505563705.17,47666,14.5,73678.5,9.03,-3.19,-2.43,0,*7C
1505563706.4,47667,14.5,73678.5,9.05,-4.33,-3.67,0,*73
1505563707.62,47668,14.5,73680.8,9.09,-5.55,-4.77,0,*77
1505563708.83,47669,14.5,73676.8,9.15,-8.55,-6.69,0,*7B
1505563710.05,47670,14.5,73674.3,9.15,-8.37,-7.19,0,*71
1505563711.3,47671,14.5,73676.3,9.17,-8.11,-7.57,0,*7C
1505563712.52,47672,14.5,73676.5,9.17,-5.85,-5.47,0,*7C
1505563713.74,47673,14.5,73678.0,9.17,-5.89,-7.11,0,*70
1505563715.01,47674,14.5,73680.8,9.19,-6.19,-7.31,0,*71
1505563716.25,47675,14.5,73680.5,9.21,-6.19,-7.01,0,*78
1505563717.47,47676,14.5,73678.8,9.21,-7.65,-8.45,0,*7E
1505563718.7,47677,14.5,73680.8,9.23,-7.61,-8.33,0,*78
1505563719.94,47678,14.5,73686.0,9.25,-7.05,-7.35,0,*7A
1505563721.14,47679,14.5,73682.8,9.25,-8.97,-8.85,0,*7B
1505563722.37,47680,14.5,73680.5,9.27,-6.89,-7.35,0,*7A
1505563723.59,47681,14.5,73680.5,9.31,-11.11,-11.11,0,*7A
1505563724.84,47682,14.5,73682.8,9.31,-9.41,-9.05,0,*79
1505563726.07,47683,14.5,73682.0,9.35,-8.29,-9.37,0,*72